, AK

(GMT )
Northway

Weather History for PAOR - October, 2012

Change the Weather History Date:

Saturday, October 6, 2012

  Actual Average Record
Temperature  
Mean Temperature 40 °F -  
Max Temperature 46 °F 37 °F 55 °F (1963)
Min Temperature 33 °F 21 °F 10 °F (2016)
Degree Days  
Heating Degree Days 26    
Moisture  
Dew Point 37 °F    
Average Humidity 92    
Maximum Humidity 100    
Minimum Humidity 82    
Precipitation  
Precipitation 0.14 in - - ()
Sea Level Pressure  
Sea Level Pressure 30.18 in    
Wind  
Wind Speed 2 mph (NNW)    
Max Wind Speed 8 mph    
Max Gust Speed -    
Visibility 10 miles    
Events Fog , Rain    
Averages and records for this station are not official NWS values.
T = Trace of Precipitation, MM = Missing Value Source: NWS Daily Summary

Daily Weather History Graph

Daily Weather History Graph

Search for Another Location

Airport or City:

Trip Planner

Search our weather history database for the weather conditions in past years. The results will help you decide how hot, cold, wet, or windy it might be!

Date:

Astronomy

Oct. 06, 2012 Rise Set
Actual Time 7:51 AM AKDT 6:38 PM AKDT
Civil Twilight 7:05 AM AKDT 7:24 PM AKDT
Nautical Twilight 6:12 AM AKDT 8:17 PM AKDT
Astronomical Twilight 5:16 AM AKDT 9:12 PM AKDT
Moon 9:26 PM AKDT (10/6) 3:29 PM AKDT (10/6)
Length of Visible Light 12h 18m
Length of Day
10h 47m
Waning Gibbous, 64% of the Moon is Illuminated
Oct 6
Waning Gibbous
Oct 7
Last Quarter
Oct 15
New
Oct 21
First Quarter
Oct 29
Full

Hourly Weather History & Observations

Time (AKDT) Temp. Windchill Dew Point Humidity Pressure Visibility Wind Dir Wind Speed Gust Speed Precip Events Conditions
12:53 AM 34.0 °F - 32.0 °F 92% 30.10 in 10.0 mi Calm Calm - N/A   Scattered Clouds
1:53 AM 36.0 °F 31.1 °F 34.0 °F 93% 30.09 in 10.0 mi ENE 5.8 mph - N/A   Scattered Clouds
2:53 AM 34.0 °F - 33.1 °F 96% 30.08 in 10.0 mi Calm Calm - N/A   Scattered Clouds
3:53 AM 33.1 °F - 32.0 °F 96% 30.08 in 10.0 mi Calm Calm - N/A   Scattered Clouds
4:53 AM 35.1 °F - 33.1 °F 92% 30.06 in 10.0 mi Calm Calm - N/A   Scattered Clouds
5:53 AM 34.0 °F - 33.1 °F 96% 30.04 in 10.0 mi Calm Calm - N/A   Scattered Clouds
6:53 AM 35.1 °F - 34.0 °F 96% 30.07 in 10.0 mi Calm Calm - N/A   Scattered Clouds
7:53 AM 37.0 °F - 35.1 °F 93% 30.09 in 10.0 mi Calm Calm - 0.00 in Rain Light Rain
8:53 AM 37.9 °F - 37.0 °F 97% 30.10 in 4.0 mi Calm Calm - 0.07 in Rain Light Rain
9:53 AM 39.9 °F - 39.0 °F 97% 30.12 in 6.0 mi Calm Calm - 0.05 in Rain Light Rain
10:53 AM 41.0 °F - 41.0 °F 100% 30.14 in 10.0 mi Calm Calm - 0.02 in Rain Light Rain
11:53 AM 44.1 °F - 42.1 °F 93% 30.17 in 10.0 mi Calm Calm - 0.00 in Fog Scattered Clouds
12:53 PM 45.0 °F 43.5 °F 43.0 °F 93% 30.18 in 8.0 mi SSW 3.5 mph - N/A Fog Mostly Cloudy
1:53 PM 45.0 °F 41.8 °F 43.0 °F 93% 30.19 in 10.0 mi ESE 5.8 mph - N/A   Mostly Cloudy
2:53 PM 46.0 °F - 44.1 °F 93% 30.22 in 10.0 mi Calm Calm - N/A   Mostly Cloudy
3:53 PM 46.9 °F - 43.0 °F 86% 30.25 in 10.0 mi NE 3.5 mph - N/A   Overcast
4:53 PM 44.1 °F 39.5 °F 39.0 °F 82% 30.27 in 10.0 mi NNW 8.1 mph - N/A   Mostly Cloudy
5:53 PM 43.0 °F 39.5 °F 37.9 °F 82% 30.28 in 10.0 mi NW 5.8 mph - N/A   Mostly Cloudy
6:53 PM 41.0 °F 37.1 °F 36.0 °F 82% 30.30 in 10.0 mi NW 5.8 mph - N/A   Scattered Clouds
7:53 PM 39.0 °F 35.7 °F 36.0 °F 89% 30.31 in 10.0 mi NW 4.6 mph - N/A   Scattered Clouds
8:53 PM 37.0 °F 34.5 °F 35.1 °F 93% 30.30 in 10.0 mi WNW 3.5 mph - N/A   Scattered Clouds
9:53 PM 36.0 °F - 34.0 °F 93% 30.31 in 10.0 mi Calm Calm - N/A   Scattered Clouds
10:53 PM 35.1 °F - 33.1 °F 92% 30.28 in 10.0 mi Calm Calm - N/A   Mostly Cloudy
11:53 PM 35.1 °F - 34.0 °F 96% 30.28 in 10.0 mi Calm Calm - N/A   Overcast